This is the latest recevied weather packets stored in our database for station/object WB4ROX-10. If no packets are shown the sender has not sent any weather packets the latest 10 day(s).
| Time | Temp. | Humidity | Pressure | Rain* | Wind** | Luminosity | Snow |
|---|---|---|---|---|---|---|---|
| 1777624340 | 5° C | 59% | 1005.8 hPa | 0 mm | - | - | - |
| 1777624040 | 4.44° C | 61% | 1005.8 hPa | 0 mm | - | - | - |
| 1777623740 | 4.44° C | 62% | 1005.8 hPa | 0 mm | - | - | - |
| 1777623440 | 4.44° C | 64% | 1005.6 hPa | 0 mm | - | - | - |
| 1777622840 | 3.89° C | 69% | 1005.9 hPa | 0 mm | - | - | - |
| 1777622540 | 3.89° C | 69% | 1006.1 hPa | 0 mm | - | - | - |
| 1777622240 | 3.89° C | 68% | 1005.7 hPa | 0 mm | - | - | - |
| 1777621940 | 3.89° C | 69% | 1005.9 hPa | 0 mm | - | - | - |
| 1777621642 | 3.89° C | 69% | 1005.9 hPa | 0 mm | - | - | - |
| 1777621340 | 3.89° C | 69% | 1005.9 hPa | 0 mm | - | - | - |
| 1777621040 | 3.89° C | 70% | 1005.7 hPa | 0 mm | - | - | - |
| 1777620741 | 3.89° C | 71% | 1006 hPa | 0 mm | - | - | - |
| 1777620440 | 3.33° C | 72% | 1005.8 hPa | 0 mm | - | - | - |
| 1777620141 | 3.33° C | 73% | 1006 hPa | 0 mm | - | - | - |
| 1777619840 | 3.33° C | 73% | 1006 hPa | 0 mm | - | - | - |
| 1777619541 | 3.33° C | 74% | 1006.1 hPa | 0 mm | - | - | - |
| 1777619240 | 3.33° C | 75% | 1006 hPa | 0 mm | - | - | - |
| 1777618940 | 3.33° C | 76% | 1005.9 hPa | 0 mm | - | - | - |
| 1777618640 | 2.78° C | 77% | 1006 hPa | 0 mm | - | - | - |
| 1777618040 | 2.78° C | 80% | 1006.1 hPa | 0 mm | - | - | - |
| 1777617741 | 2.78° C | 80% | 1006.3 hPa | 0 mm | - | - | - |
| 1777617441 | 2.78° C | 80% | 1006.4 hPa | 0 mm | - | - | - |
| 1777617141 | 2.78° C | 80% | 1006.3 hPa | 0 mm | - | - | - |
| 1777616840 | 2.78° C | 79% | 1006.5 hPa | 0 mm | - | - | - |
| 1777616540 | 2.78° C | 79% | 1006.4 hPa | 0 mm | - | - | - |
* Rain latest hour (hover to see other rain measurements)
** Current wind speed in m/s (hover to see current wind gust speed)